Weather History for KEET - January, 2014

Change the Weather History Date:

Monday, January 13, 2014

  Actual Average Record
Temperature  
Mean Temperature 49 °F 44 °F  
Max Temperature 54 °F 54 °F 74 °F (2013)
Min Temperature 44 °F 34 °F 1 °F (1981)
Degree Days  
Heating Degree Days 16 21  
Month to date heating degree days 331 273  
Since 1 July heating degree days 1294 1293  
Moisture  
Dew Point 47 °F    
Average Humidity 75    
Maximum Humidity 100    
Minimum Humidity 50    
Precipitation  
Precipitation 0.58 in 0.16 in 1.08 in (2005)
Month to date precipitation 2.82 1.98  
Year to date precipitation 2.82 1.98  
Snow  
Snow 0.00 in - - ()
Month to date snowfall 0.0  
Since 1 July snowfall 0.0  
Snow Depth 0.00 in    
Sea Level Pressure  
Sea Level Pressure 29.95 in    
Wind  
Wind Speed 5 mph (SSE)    
Max Wind Speed 17 mph    
Max Gust Speed 21 mph    
Visibility 6 miles    
Events Rain    
T = Trace of Precipitation, MM = Missing Value Source: NWS Daily Summary

Daily Weather History Graph

Daily Weather History Graph

Search for Another Location

Airport or City:

Trip Planner

Search our weather history database for the weather conditions in past years. The results will help you decide how hot, cold, wet, or windy it might be!

Date:

Astronomy

Jan. 13, 2014 Rise Set
Actual Time 6:50 AM CST 5:01 PM CST
Civil Twilight 6:23 AM CST 5:28 PM CST
Nautical Twilight 5:53 AM CST 5:58 PM CST
Astronomical Twilight 5:23 AM CST 6:28 PM CST
Moon 3:14 PM CST (1/13) 4:40 AM CST (1/13)
Length of Visible Light 11h 04m
Length of Day
10h 10m
Waxing Gibbous, 95% of the Moon is Illuminated
Jan 13
Waxing Gibbous
Jan 15
Full
Jan 23
Last Quarter
Jan 30
New
Feb 6
First Quarter

Hourly Weather History & Observations

Time (CST) Temp. Windchill Dew Point Humidity Pressure Visibility Wind Dir Wind Speed Gust Speed Precip Events Conditions
12:53 AM 48.0 °F - 32.0 °F 54% 30.11 in 10.0 mi South 4.6 mph - N/A   Clear
1:53 AM 46.9 °F - 34.0 °F 61% 30.11 in 10.0 mi Calm Calm - N/A   Clear
2:53 AM 45.0 °F 43.5 °F 35.1 °F 68% 30.09 in 10.0 mi ESE 3.5 mph - N/A   Clear
3:53 AM 45.0 °F 43.5 °F 37.0 °F 74% 30.06 in 10.0 mi ENE 3.5 mph - N/A   Clear
4:53 AM 44.1 °F 41.5 °F 37.0 °F 76% 30.08 in 10.0 mi ENE 4.6 mph - N/A   Partly Cloudy
5:53 AM 46.0 °F 43.9 °F 37.9 °F 73% 30.10 in 10.0 mi SSE 4.6 mph - N/A   Overcast
6:53 AM 46.0 °F 44.8 °F 39.0 °F 76% 30.09 in 10.0 mi SE 3.5 mph - N/A   Overcast
7:53 AM 48.0 °F - 39.9 °F 74% 30.09 in 10.0 mi SE 5.8 mph - N/A   Overcast
8:06 AM 48.0 °F - 39.9 °F 74% 30.08 in 10.0 mi SE 5.8 mph - N/A   Mostly Cloudy
8:25 AM 48.9 °F - 39.9 °F 71% 30.08 in 10.0 mi SE 4.6 mph - N/A   Scattered Clouds
8:53 AM 50.0 °F - 39.9 °F 68% 30.08 in 10.0 mi SSE 5.8 mph - N/A   Clear
9:24 AM 51.1 °F - 41.0 °F 68% 30.08 in 10.0 mi SSE 4.6 mph - N/A   Mostly Cloudy
9:53 AM 53.1 °F - 42.1 °F 66% 30.07 in 10.0 mi SE 5.8 mph - N/A   Overcast
10:10 AM 54.0 °F - 41.0 °F 62% 30.05 in 10.0 mi SSE 10.4 mph - N/A   Overcast
10:53 AM 54.0 °F - 42.1 °F 64% 30.02 in 10.0 mi SE 4.6 mph - 0.00 in Rain Light Rain
11:53 AM 52.0 °F - 45.0 °F 77% 29.99 in 7.0 mi ESE 3.5 mph - 0.02 in Rain Light Rain
12:53 PM 48.9 °F - 46.0 °F 90% 29.94 in 3.0 mi ESE 3.5 mph - 0.09 in Rain Rain
1:31 PM 48.0 °F - 46.0 °F 93% 29.92 in 6.0 mi SE 4.6 mph - 0.02 in Rain Light Rain
1:38 PM 48.0 °F - 46.0 °F 93% 29.92 in 1.8 mi SSE 4.6 mph - 0.05 in Rain Heavy Rain
1:53 PM 48.9 °F - 46.9 °F 93% 29.92 in 1.8 mi SE 5.8 mph - 0.10 in Rain Rain
1:59 PM 48.9 °F - 46.9 °F 93% 29.91 in 2.5 mi SE 3.5 mph - 0.00 in Rain Light Rain
2:07 PM 48.9 °F - 46.9 °F 93% 29.90 in 5.0 mi ESE 3.5 mph - 0.00 in Rain Light Rain
2:25 PM 48.9 °F - 48.0 °F 97% 29.89 in 6.0 mi East 4.6 mph - 0.01 in Rain Light Rain
2:53 PM 50.0 °F - 48.0 °F 93% 29.91 in 2.0 mi ESE 6.9 mph - 0.03 in Rain Rain
3:01 PM 50.0 °F - 48.0 °F 93% 29.90 in 1.2 mi SE 5.8 mph - 0.02 in Rain Rain
3:07 PM 50.0 °F - 48.9 °F 96% 29.90 in 2.0 mi Variable 3.5 mph - 0.02 in Rain Light Rain
3:27 PM 50.0 °F - 48.9 °F 96% 29.90 in 3.0 mi ESE 4.6 mph - 0.04 in Rain Light Rain
3:43 PM 50.0 °F - 50.0 °F 100% 29.88 in 2.5 mi ESE 3.5 mph - 0.05 in Rain Light Rain
3:53 PM 51.1 °F - 50.0 °F 96% 29.88 in 5.0 mi Calm Calm - 0.06 in Rain Light Rain
4:18 PM 52.0 °F - 51.1 °F 97% 29.88 in 7.0 mi SE 4.6 mph - 0.00 in   Overcast
4:30 PM 53.1 °F - 52.0 °F 96% 29.88 in 1.8 mi SSE 6.9 mph - 0.01 in Rain Light Rain
4:41 PM 53.1 °F - 52.0 °F 96% 29.87 in 2.5 mi SSE 8.1 mph - 0.02 in Rain Light Rain
4:53 PM 53.1 °F - 52.0 °F 96% 29.87 in 4.0 mi South 8.1 mph - 0.02 in   Overcast
5:53 PM 53.1 °F - 52.0 °F 96% 29.88 in 3.0 mi South 8.1 mph - 0.01 in Rain Light Rain
6:41 PM 53.1 °F - 52.0 °F 96% 29.88 in 2.5 mi SSE 8.1 mph - 0.03 in Rain Light Rain
6:48 PM 53.6 °F - 51.8 °F 94% 29.88 in 7.0 mi South 9.2 mph - 0.03 in Rain Light Rain
6:53 PM 53.1 °F - 52.0 °F 96% 29.88 in 9.0 mi South 8.1 mph - 0.03 in   Overcast
7:53 PM 53.1 °F - 52.0 °F 96% 29.89 in 5.0 mi South 6.9 mph - 0.02 in Rain Light Rain
8:53 PM 53.1 °F - 53.1 °F 100% 29.89 in 7.0 mi South 5.8 mph - 0.03 in Rain Light Rain
9:03 PM 53.1 °F - 53.1 °F 100% 29.88 in 9.0 mi South 5.8 mph - 0.00 in   Overcast
9:44 PM 53.1 °F - 53.1 °F 100% 29.88 in 1.8 mi SSE 6.9 mph - 0.03 in Rain Rain
9:53 PM 53.1 °F - 53.1 °F 100% 29.87 in 1.2 mi South 5.8 mph - 0.10 in Rain Heavy Rain
10:05 PM 53.1 °F - 53.1 °F 100% 29.88 in 3.0 mi South 4.6 mph - 0.03 in Rain Light Rain
10:09 PM 53.1 °F - 53.1 °F 100% 29.88 in 2.5 mi South 4.6 mph - 0.04 in Rain Rain
10:19 PM 53.1 °F - 53.1 °F 100% 29.88 in 2.5 mi South 5.8 mph - 0.05 in Rain Light Rain
10:28 PM 53.1 °F - 53.1 °F 100% 29.87 in 3.0 mi South 3.5 mph - 0.06 in Rain Light Rain
10:53 PM 53.1 °F - 53.1 °F 100% 29.86 in 3.0 mi South 3.5 mph - 0.07 in Rain Light Rain
11:03 PM 53.1 °F - 53.1 °F 100% 29.86 in 6.0 mi South 3.5 mph - 0.00 in Rain Light Rain
11:53 PM 53.1 °F - 53.1 °F 100% 29.85 in 6.0 mi Calm Calm - 0.00 in Rain Light Rain